Weather History for Delaware, OH

Change the Weather History Date:

Saturday, February 2, 2013

  Actual Average Record
Temperature  
Mean Temperature 18 °F -  
Max Temperature 26 °F 36 °F 64 °F (1989)
Min Temperature 10 °F 18 °F -14 °F (1951)
Degree Days  
Heating Degree Days 47    
Moisture  
Dew Point 15 °F    
Average Humidity 84    
Maximum Humidity 93    
Minimum Humidity 73    
Precipitation  
Precipitation 0.00 in - - ()
Sea Level Pressure  
Sea Level Pressure 30.08 in    
Wind  
Wind Speed 7 mph (SW)    
Max Wind Speed 17 mph    
Max Gust Speed 21 mph    
Visibility 6 miles    
Events Snow    
Averages and records for this station are not official NWS values.
T = Trace of Precipitation, MM = Missing Value Source: NWS Daily Summary

Daily Weather History Graph

Daily Weather History Graph

Search for Another Location

Airport:

Trip Planner

Search our weather history database for the weather conditions in past years. The results will help you decide how hot, cold, wet, or windy it might be!

Date:

Astronomy

Feb. 02, 2013 Rise Set
Actual Time 7:40 AM EST 5:52 PM EST
Civil Twilight 7:11 AM EST 6:21 PM EST
Nautical Twilight 6:39 AM EST 6:53 PM EST
Astronomical Twilight 6:07 AM EST 7:25 PM EST
Moon No Moon Rise 10:49 AM EST (2/2)
Length of Visible Light 11h 09m
Length of Day
10h 12m
Waning Gibbous, 60% of the Moon is Illuminated
Feb 2
Waning Gibbous
Feb 3
Last Quarter
Feb 10
New
Feb 17
First Quarter
Feb 25
Full

Hourly Weather History & Observations

Time (EST) Temp. Windchill Dew Point Humidity Pressure Visibility Wind Dir Wind Speed Gust Speed Precip Events Conditions
12:04 AM 10.4 °F 2.2 °F 5.0 °F 79% 30.30 in 10.0 mi South 4.6 mph - N/A   Mostly Cloudy
12:24 AM 10.4 °F 2.2 °F 5.0 °F 79% 30.30 in 10.0 mi South 4.6 mph - N/A   Scattered Clouds
12:44 AM 10.4 °F 2.2 °F 5.0 °F 79% 30.29 in 10.0 mi South 4.6 mph - N/A   Clear
1:04 AM 10.4 °F 0.8 °F 5.0 °F 79% 30.28 in 10.0 mi South 5.8 mph - N/A   Scattered Clouds
1:24 AM 10.4 °F -0.4 °F 5.0 °F 79% 30.28 in 10.0 mi SSW 6.9 mph - N/A   Clear
1:44 AM 10.4 °F -0.4 °F 5.0 °F 79% 30.27 in 10.0 mi SSW 6.9 mph - N/A   Clear
2:04 AM 12.2 °F 0.7 °F 5.0 °F 73% 30.25 in 10.0 mi South 8.1 mph - N/A   Clear
2:24 AM 12.2 °F 1.7 °F 5.0 °F 73% 30.25 in 10.0 mi SSW 6.9 mph - N/A   Clear
2:44 AM 12.2 °F 1.7 °F 5.0 °F 73% 30.24 in 10.0 mi SSW 6.9 mph - N/A   Mostly Cloudy
3:04 AM 12.2 °F 2.9 °F 5.0 °F 73% 30.24 in 10.0 mi SSW 5.8 mph - N/A   Overcast
3:24 AM 12.2 °F 0.7 °F 6.8 °F 79% 30.24 in 10.0 mi SSW 8.1 mph - N/A   Overcast
3:44 AM 12.2 °F 0.7 °F 6.8 °F 79% 30.23 in 10.0 mi SSW 8.1 mph - N/A   Overcast
4:04 AM 14.0 °F 5.1 °F 6.8 °F 73% 30.22 in 10.0 mi SSW 5.8 mph - N/A   Overcast
4:24 AM 14.0 °F 2.9 °F 6.8 °F 73% 30.22 in 10.0 mi SSW 8.1 mph - N/A   Overcast
4:44 AM 14.0 °F 3.9 °F 6.8 °F 73% 30.22 in 10.0 mi SSW 6.9 mph - N/A   Overcast
5:04 AM 14.0 °F 2.9 °F 8.6 °F 79% 30.22 in 10.0 mi SSW 8.1 mph - N/A   Overcast
5:24 AM 14.0 °F 2.9 °F 8.6 °F 79% 30.22 in 10.0 mi SSW 8.1 mph - N/A   Overcast
5:44 AM 14.0 °F 2.9 °F 8.6 °F 79% 30.21 in 10.0 mi SSW 8.1 mph - N/A   Overcast
6:03 AM 14.0 °F 3.9 °F 8.6 °F 79% 30.20 in 10.0 mi SSW 6.9 mph - N/A   Overcast
6:24 AM 14.0 °F 2.0 °F 8.6 °F 79% 30.19 in 10.0 mi SSW 9.2 mph - N/A   Overcast
6:44 AM 14.0 °F 2.9 °F 8.6 °F 79% 30.18 in 10.0 mi SSW 8.1 mph - N/A Snow Light Snow
7:03 AM 14.0 °F 2.0 °F 10.4 °F 86% 30.18 in 4.0 mi SSW 9.2 mph - N/A Snow Light Snow
7:24 AM 14.0 °F 2.0 °F 10.4 °F 86% 30.17 in 7.0 mi South 9.2 mph - N/A Snow Light Snow
7:44 AM 14.0 °F 1.2 °F 10.4 °F 86% 30.15 in 5.0 mi South 10.4 mph - N/A Snow Light Snow
8:03 AM 14.0 °F 2.0 °F 12.2 °F 93% 30.15 in 5.0 mi South 9.2 mph - N/A Snow Light Snow
8:24 AM 15.8 °F 3.4 °F 12.2 °F 86% 30.14 in 1.8 mi South 10.4 mph - N/A Snow Light Snow
8:44 AM 15.8 °F 4.2 °F 12.2 °F 86% 30.13 in 3.0 mi South 9.2 mph - N/A Snow Light Snow
9:03 AM 17.6 °F 5.7 °F 14.0 °F 86% 30.12 in 1.8 mi South 10.4 mph - N/A Snow Light Snow
9:24 AM 17.6 °F 3.2 °F 14.0 °F 86% 30.11 in 3.0 mi South 15.0 mph 20.7 mph N/A Snow Light Snow
9:44 AM 19.4 °F 6.0 °F 14.0 °F 80% 30.10 in 3.0 mi South 13.8 mph 19.6 mph N/A Snow Light Snow
10:03 AM 19.4 °F 5.0 °F 14.0 °F 80% 30.09 in 2.5 mi South 16.1 mph 19.6 mph N/A Snow Light Snow
10:24 AM 19.4 °F 4.5 °F 15.8 °F 86% 30.08 in 3.0 mi South 17.3 mph - N/A Snow Light Snow
10:44 AM 19.4 °F 7.2 °F 15.8 °F 86% 30.08 in 1.2 mi SSW 11.5 mph 17.3 mph N/A Snow Light Snow
11:04 AM 21.2 °F 10.1 °F 17.6 °F 86% 30.07 in 1.2 mi SSW 10.4 mph - N/A Snow Light Snow
11:24 AM 21.2 °F 8.9 °F 17.6 °F 86% 30.07 in 1.2 mi South 12.7 mph - N/A Snow Light Snow
11:44 AM 21.2 °F 8.3 °F 17.6 °F 86% 30.06 in 1.0 mi SSW 13.8 mph 17.3 mph N/A Snow Light Snow
12:04 PM 21.2 °F 8.9 °F 17.6 °F 86% 30.05 in 1.5 mi SSW 12.7 mph 19.6 mph N/A Snow Light Snow
12:24 PM 23.0 °F 11.1 °F 17.6 °F 80% 30.04 in 3.0 mi SSW 12.7 mph - N/A Snow Light Snow
12:44 PM 23.0 °F 11.1 °F 19.4 °F 86% 30.02 in 2.0 mi SSW 12.7 mph - N/A Snow Light Snow
1:04 PM 23.0 °F 11.7 °F 19.4 °F 86% 30.01 in 2.5 mi SSW 11.5 mph - N/A Snow Light Snow
1:24 PM 23.0 °F 10.6 °F 19.4 °F 86% 29.99 in 3.0 mi SSW 13.8 mph - N/A Snow Light Snow
1:44 PM 23.0 °F 13.9 °F 19.4 °F 86% 29.98 in 1.8 mi SSW 8.1 mph 11.5 mph N/A Snow Light Snow
2:04 PM 24.8 °F 12.9 °F 19.4 °F 80% 29.98 in 1.0 mi SW 13.8 mph - N/A Snow Light Snow
2:24 PM 24.8 °F 14.6 °F 21.2 °F 86% 29.96 in 1.2 mi SW 10.4 mph - N/A Snow Light Snow
2:44 PM 24.8 °F 14.6 °F 21.2 °F 86% 29.96 in 2.0 mi SW 10.4 mph - N/A Snow Light Snow
3:04 PM 24.8 °F 14.6 °F 21.2 °F 86% 29.96 in 3.0 mi SW 10.4 mph - N/A Snow Light Snow
3:24 PM 24.8 °F 15.3 °F 21.2 °F 86% 29.96 in 2.0 mi SW 9.2 mph - N/A Snow Light Snow
3:44 PM 26.6 °F 18.2 °F 21.2 °F 80% 29.96 in 5.0 mi SW 8.1 mph - N/A   Haze
4:04 PM 26.6 °F 20.0 °F 21.2 °F 80% 29.96 in 5.0 mi WSW 5.8 mph - N/A   Haze
4:24 PM 26.6 °F 21.2 °F 21.2 °F 80% 29.96 in 5.0 mi WSW 4.6 mph - N/A   Overcast
4:43 PM 26.6 °F 21.2 °F 21.2 °F 80% 29.97 in 5.0 mi WSW 4.6 mph - N/A   Overcast
5:04 PM 26.6 °F 20.0 °F 21.2 °F 80% 29.97 in 4.0 mi WSW 5.8 mph - N/A Snow Light Snow
5:24 PM 26.6 °F 21.2 °F 21.2 °F 80% 29.96 in 3.0 mi WSW 4.6 mph - N/A Snow Light Snow
5:43 PM 24.8 °F 20.5 °F 23.0 °F 93% 29.97 in 3.0 mi WSW 3.5 mph - N/A Snow Light Snow
6:04 PM 24.8 °F 19.1 °F 23.0 °F 93% 29.97 in 5.0 mi WSW 4.6 mph - N/A Snow Light Snow
6:24 PM 24.8 °F 19.1 °F 23.0 °F 93% 29.97 in 4.0 mi West 4.6 mph - N/A Snow Light Snow
6:44 PM 24.8 °F 20.5 °F 23.0 °F 93% 29.97 in 7.0 mi West 3.5 mph - N/A Snow Light Snow
7:04 PM 24.8 °F 20.5 °F 23.0 °F 93% 29.97 in 10.0 mi West 3.5 mph - N/A Snow Light Snow
7:24 PM 24.8 °F 19.1 °F 23.0 °F 93% 29.98 in 10.0 mi WSW 4.6 mph - N/A   Overcast
7:44 PM 24.8 °F 17.9 °F 21.2 °F 86% 29.98 in 7.0 mi WSW 5.8 mph - N/A Snow Light Snow
8:04 PM 24.8 °F 17.9 °F 21.2 °F 86% 29.98 in 7.0 mi WSW 5.8 mph - N/A Snow Light Snow
8:24 PM 24.8 °F 20.5 °F 21.2 °F 86% 29.98 in 7.0 mi WSW 3.5 mph - N/A Snow Light Snow
8:43 PM 24.8 °F 20.5 °F 21.2 °F 86% 29.98 in 7.0 mi SW 3.5 mph - N/A Snow Light Snow
9:04 PM 24.8 °F 20.5 °F 21.2 °F 86% 29.98 in 7.0 mi SW 3.5 mph - N/A Snow Light Snow
9:24 PM 24.8 °F 19.1 °F 23.0 °F 93% 29.98 in 5.0 mi SW 4.6 mph - N/A Snow Light Snow
9:44 PM 24.8 °F 19.1 °F 23.0 °F 93% 29.98 in 5.0 mi WSW 4.6 mph - N/A Snow Light Snow
10:04 PM 24.8 °F 20.5 °F 23.0 °F 93% 29.98 in 5.0 mi West 3.5 mph - N/A Snow Light Snow
10:24 PM 24.8 °F 17.9 °F 23.0 °F 93% 29.98 in 4.0 mi West 5.8 mph - N/A Snow Light Snow
10:44 PM 24.8 °F 17.9 °F 23.0 °F 93% 29.98 in 5.0 mi West 5.8 mph - N/A Snow Light Snow
11:04 PM 24.8 °F 17.9 °F 21.2 °F 86% 29.98 in 4.0 mi WNW 5.8 mph - N/A Snow Light Snow
11:24 PM 24.8 °F 20.5 °F 21.2 °F 86% 29.98 in 4.0 mi WNW 3.5 mph - N/A Snow Light Snow
11:44 PM 23.0 °F 17.0 °F 21.2 °F 93% 29.97 in 4.0 mi West 4.6 mph - N/A Snow Light Snow